.
WxDataArchive / Data Records for 2011-07-31
2011-07-30 July 2011 2011-08-01

Data Records for Sunday, 31 July 2011

Time	Temp	Chill	HIndex	Humid	Dewpt	 Wind 	HiWind	WindDir	Rain 	Barom 
-----	----	-----	------	-----	-----	------	------	-------	-----	----- 
00:00	74.6	74.6	74.6	77	66.9	0	0	---	0.00	30.043 
00:05	74.4	74.4	74.4	77	66.7	0	0	---	0.00	30.043 
00:10	74.2	74.2	74.2	77	66.5	0	0	---	0.00	30.043 
00:15	74.0	74.0	74.0	78	66.7	0	0	---	0.00	30.042 
00:20	73.9	73.9	73.9	78	66.6	0	0	---	0.00	30.042 
00:25	73.7	73.7	73.7	79	66.8	0	0	---	0.00	30.042 
00:30	73.5	73.5	73.5	79	66.6	0	0	---	0.00	30.040 
00:35	73.3	73.3	73.3	79	66.4	0	0	---	0.00	30.040 
00:40	73.2	73.2	73.2	80	66.6	0	0	---	0.00	30.040 
00:45	73.2	73.2	73.2	81	67.0	0	0	---	0.00	30.043 
00:50	73.0	73.0	73.0	81	66.8	0	0	---	0.00	30.043 
00:55	72.8	72.8	72.8	81	66.6	0	0	---	0.00	30.043 
01:00	72.7	72.7	72.7	82	66.9	0	0	---	0.00	30.042 
01:05	72.5	72.5	72.5	83	67.0	0	0	---	0.00	30.042 
01:10	72.3	72.3	72.3	83	66.8	0	0	---	0.00	30.042 
01:15	72.1	72.1	72.1	83	66.6	0	0	---	0.00	30.038 
01:20	72.0	72.0	72.0	84	66.9	0	0	---	0.00	30.038 
01:25	71.8	71.8	71.8	84	66.7	0	0	---	0.00	30.038 
01:30	71.8	71.8	71.8	84	66.7	0	0	---	0.00	30.036 
01:35	71.6	71.6	71.6	85	66.8	0	0	---	0.00	30.036 
01:40	71.5	71.5	71.5	85	66.7	0	0	---	0.00	30.036 
01:45	71.3	71.3	71.3	85	66.5	0	0	---	0.00	30.041 
01:50	71.1	71.1	71.1	85	66.4	0	0	---	0.00	30.041 
01:55	70.9	70.9	70.9	85	66.2	0	0	---	0.00	30.041 
02:00	70.9	70.9	70.9	86	66.5	0	0	---	0.00	30.042 
02:05	70.8	70.8	70.8	86	66.4	0	0	---	0.00	30.042 
02:10	70.6	70.6	70.6	86	66.2	0	0	---	0.00	30.042 
02:15	70.6	70.6	70.6	86	66.2	0	0	---	0.00	30.040 
02:20	70.4	70.4	70.4	86	66.0	0	0	---	0.00	30.040 
02:25	70.4	70.4	70.4	86	66.0	0	0	---	0.00	30.040 
02:30	70.3	70.3	70.3	87	66.2	0	0	---	0.00	30.034 
02:35	70.3	70.3	70.3	87	66.2	0	0	---	0.00	30.034 
02:40	70.1	70.1	70.1	87	66.0	0	0	---	0.00	30.034 
02:45	69.9	69.9	69.9	87	65.8	0	0	---	0.00	30.035 
02:50	69.8	69.8	69.8	87	65.7	0	0	---	0.00	30.035 
02:55	69.8	69.8	69.8	87	65.7	0	0	---	0.00	30.035 
03:00	69.6	69.6	69.6	87	65.6	0	0	---	0.00	30.034 
03:05	69.4	69.4	69.4	88	65.7	0	0	---	0.00	30.034 
03:10	69.4	69.4	69.4	88	65.7	0	0	---	0.00	30.034 
03:15	69.3	69.3	69.3	88	65.6	0	0	---	0.00	30.033 
03:20	69.1	69.1	69.1	88	65.4	0	0	---	0.00	30.033 
03:25	68.9	68.9	68.9	88	65.2	0	0	---	0.00	30.033 
03:30	68.9	68.9	68.9	88	65.2	0	0	---	0.00	30.035 
03:35	68.8	68.8	68.8	88	65.1	0	0	---	0.00	30.035 
03:40	68.6	68.6	68.6	88	64.9	0	0	---	0.00	30.035 
03:45	68.6	68.6	68.6	88	64.9	0	0	---	0.00	30.035 
03:50	68.4	68.4	68.4	88	64.7	0	0	---	0.00	30.035 
03:55	68.4	68.4	68.4	88	64.7	0	0	---	0.00	30.035 
04:00	68.4	68.4	68.4	88	64.7	0	0	---	0.00	30.039 
04:05	68.3	68.3	68.3	88	64.6	0	0	---	0.00	30.039 
04:10	68.3	68.3	68.3	89	64.9	0	0	---	0.00	30.039 
04:15	68.1	68.1	68.1	88	64.4	0	0	---	0.00	30.034 
04:20	68.1	68.1	68.1	89	64.7	0	0	---	0.00	30.034 
04:25	67.9	67.9	67.9	89	64.5	0	0	---	0.00	30.034 
04:30	67.8	67.8	67.8	89	64.4	0	0	---	0.00	30.040 
04:35	67.8	67.8	67.8	90	64.8	0	0	---	0.00	30.040 
04:40	67.8	67.8	67.8	90	64.8	0	0	---	0.00	30.040 
04:45	67.6	67.6	67.6	90	64.6	0	0	---	0.00	30.045 
04:50	67.6	67.6	67.6	90	64.6	0	0	---	0.00	30.045 
04:55	67.6	67.6	67.6	90	64.6	0	0	---	0.00	30.045 
05:00	67.6	67.6	67.6	91	64.9	0	0	---	0.00	30.049 
05:05	67.4	67.4	67.4	91	64.7	0	0	---	0.00	30.049 
05:10	67.4	67.4	67.4	91	64.7	0	0	---	0.00	30.049 
05:15	67.4	67.4	67.4	91	64.7	0	0	---	0.00	30.053 
05:20	67.3	67.3	67.3	91	64.6	0	0	---	0.00	30.053 
05:25	67.3	67.3	67.3	91	64.6	0	0	---	0.00	30.053 
05:30	67.3	67.3	67.3	92	64.9	0	0	---	0.00	30.063 
05:35	67.3	67.3	67.3	92	64.9	0	0	---	0.00	30.063 
05:40	67.3	67.3	67.3	92	64.9	0	0	---	0.00	30.063 
05:45	67.3	67.3	67.3	92	64.9	0	0	---	0.00	30.065 
05:50	67.3	67.3	67.3	92	64.9	0	0	---	0.00	30.065 
05:55	67.3	67.3	67.3	92	64.9	0	0	---	0.00	30.065 
06:00	67.3	67.3	67.3	92	64.9	0	0	---	0.00	30.068 
06:05	67.1	67.1	67.1	92	64.7	0	0	---	0.00	30.068 
06:10	67.1	67.1	67.1	92	64.7	0	0	---	0.00	30.068 
06:15	67.1	67.1	67.1	93	65.0	0	0	---	0.00	30.073 
06:20	67.1	67.1	67.1	93	65.0	0	0	---	0.00	30.073 
06:25	67.1	67.1	67.1	93	65.0	0	0	---	0.00	30.073 
06:30	67.1	67.1	67.1	93	65.0	0	0	---	0.00	30.083 
06:35	66.9	66.9	66.9	93	64.8	0	0	---	0.00	30.083 
06:40	66.8	66.8	66.8	93	64.7	0	0	---	0.00	30.083 
06:45	66.8	66.8	66.8	93	64.7	0	0	---	0.00	30.082 
06:50	66.8	66.8	66.8	93	64.7	0	0	---	0.00	30.082 
06:55	66.9	66.9	66.9	93	64.8	0	0	---	0.00	30.082 
07:00	66.9	66.9	66.9	93	64.8	0	0	---	0.00	30.083 
07:05	66.9	66.9	66.9	93	64.8	0	0	---	0.00	30.083 
07:10	67.1	67.1	67.1	94	65.3	0	0	---	0.00	30.083 
07:15	67.1	67.1	67.1	94	65.3	0	0	---	0.00	30.087 
07:20	67.3	67.3	67.3	94	65.5	0	0	---	0.00	30.087 
07:25	67.4	67.4	67.4	94	65.6	0	0	---	0.00	30.087 
07:30	67.6	67.6	67.6	94	65.8	0	0	---	0.00	30.094 
07:35	67.9	67.9	67.9	94	66.1	0	0	---	0.00	30.094 
07:40	68.1	68.1	68.1	94	66.3	0	0	---	0.00	30.094 
07:45	68.6	68.6	68.6	94	66.8	0	0	---	0.00	30.090 
07:50	69.1	69.1	69.1	94	67.3	0	0	---	0.00	30.090 
07:55	69.9	69.9	69.9	94	68.1	0	0	---	0.00	30.090 
08:00	70.4	70.4	70.4	93	68.3	0	0	---	0.00	30.096 
08:05	70.9	70.9	70.9	93	68.8	0	0	---	0.00	30.096 
08:10	72.0	72.0	72.0	92	69.5	0	0	---	0.00	30.096 
08:15	73.0	73.0	73.0	87	68.9	0	0	---	0.00	30.098 
08:20	74.4	74.4	74.4	84	69.2	0	0	---	0.00	30.098 
08:25	75.6	75.6	76.3	81	69.3	0	0	---	0.00	30.098 
08:30	76.7	76.7	78.3	73	67.4	0	0	---	0.00	30.096 
08:35	77.7	77.7	79.7	72	67.9	0	0	---	0.00	30.096 
08:40	78.6	78.6	80.6	66	66.3	0	0	---	0.00	30.096 
08:45	79.2	79.2	81.2	64	65.9	0	0	---	0.00	30.097 
08:50	80.1	80.1	82.3	63	66.3	0	0	---	0.00	30.097 
08:55	80.7	80.7	82.9	62	66.4	0	0	---	0.00	30.097 
09:00	81.2	81.2	83.5	61	66.4	0	0	---	0.00	30.095 
09:05	81.6	81.6	83.9	60	66.3	0	0	---	0.00	30.095 
09:10	81.6	81.6	83.9	60	66.3	0	0	---	0.00	30.095 
09:15	82.2	82.2	84.3	58	65.9	0	0	---	0.00	30.098 
09:20	82.8	82.8	85.4	59	67.0	0	0	---	0.00	30.098 
09:25	83.4	83.4	86.1	58	67.0	0	0	---	0.00	30.098 
09:30	83.6	83.6	86.4	58	67.2	0	0	---	0.00	30.098 
09:35	83.8	83.8	86.4	57	66.9	0	0	---	0.00	30.098 
09:40	84.0	84.0	86.5	56	66.6	0	0	---	0.00	30.098 
09:45	84.5	84.5	87.5	57	67.6	0	0	---	0.00	30.096 
09:50	85.1	85.1	87.9	55	67.1	0	0	---	0.00	30.096 
09:55	85.5	85.5	88.6	55	67.5	0	2	112	0.00	30.096 
10:00	85.9	85.9	89.6	56	68.3	0	1	112	0.00	30.093 
10:05	86.5	86.5	89.6	53	67.3	0	3	112	0.00	30.093 
10:10	87.0	87.0	90.8	54	68.3	0	1	112	0.00	30.093 
10:15	87.4	87.4	91.1	53	68.1	0	2	112	0.00	30.098 
10:20	87.0	87.0	90.4	53	67.8	0	2	112	0.00	30.098 
10:25	87.0	87.0	90.4	53	67.8	0	1	112	0.00	30.098 
10:30	87.6	87.6	91.8	54	68.9	0	2	112	0.00	30.095 
10:35	88.0	88.0	91.8	52	68.1	0	2	112	0.00	30.095 
10:40	87.6	87.6	91.5	53	68.3	1	2	112	0.00	30.095 
10:45	87.4	87.4	91.1	53	68.1	1	2	112	0.00	30.092 
10:50	87.4	87.4	91.1	53	68.1	0	2	135	0.00	30.092 
10:55	88.0	88.0	91.4	51	67.6	0	2	135	0.00	30.092 
11:00	88.6	88.6	92.5	51	68.1	1	4	135	0.00	30.086 
11:05	88.8	88.8	92.4	50	67.7	1	4	112	0.00	30.086 
11:10	89.0	89.0	93.2	51	68.5	0	2	112	0.00	30.086 
11:15	89.5	89.5	93.2	49	67.8	1	3	112	0.00	30.090 
11:20	89.7	89.7	93.2	48	67.4	1	3	112	0.00	30.090 
11:25	89.5	89.5	92.8	48	67.2	1	3	112	0.00	30.090 
11:30	89.7	89.7	92.8	47	66.7	1	2	112	0.00	30.088 
11:35	89.0	89.0	92.0	48	66.7	0	2	112	0.00	30.088 
11:40	89.9	89.9	92.7	46	66.3	1	3	112	0.00	30.088 
11:45	90.5	90.5	93.8	46	66.8	0	3	90	0.00	30.082 
11:50	91.0	91.0	94.2	45	66.7	1	4	90	0.00	30.082 
11:55	91.0	91.0	94.2	45	66.7	0	3	90	0.00	30.082 
12:00	91.2	91.2	94.1	44	66.2	1	3	90	0.00	30.077 
12:05	91.8	91.8	94.3	42	65.4	0	1	90	0.00	30.077 
12:10	92.3	92.3	95.1	42	65.8	0	3	90	0.00	30.077 
12:15	91.8	91.8	94.3	42	65.4	1	2	90	0.00	30.082 
12:20	91.4	91.4	92.8	40	63.6	1	3	292	0.00	30.082 
12:25	91.4	91.4	93.6	42	65.0	1	3	292	0.00	30.082 
12:30	92.1	92.1	94.4	41	65.0	0	3	292	0.00	30.088 
12:35	92.7	92.7	95.4	41	65.5	2	5	112	0.00	30.088 
12:40	92.5	92.5	94.2	39	63.9	1	4	90	0.00	30.088 
12:45	91.8	91.8	93.4	40	64.0	1	4	338	0.00	30.084 
12:50	91.6	91.6	92.4	38	62.3	1	4	270	0.00	30.084 
12:55	90.5	90.5	91.1	39	62.1	1	4	270	0.00	30.084 
13:00	89.7	89.7	89.9	39	61.4	1	2	270	0.00	30.083 
13:05	90.3	90.3	90.1	37	60.4	1	3	270	0.00	30.083 
13:10	91.0	91.0	90.2	34	58.7	1	3	270	0.00	30.083 
13:15	91.6	91.6	92.0	37	61.6	1	3	270	0.00	30.079 
13:20	92.3	92.3	92.3	35	60.6	1	2	292	0.00	30.079 
13:25	92.5	92.5	92.6	35	60.8	1	4	292	0.00	30.079 
13:30	92.9	92.9	94.0	37	62.7	1	3	292	0.00	30.071 
13:35	93.2	93.2	94.1	36	62.2	1	3	292	0.00	30.071 
13:40	93.6	93.6	93.9	34	61.0	1	3	292	0.00	30.071 
13:45	93.4	93.4	93.2	33	59.9	2	5	270	0.00	30.065 
13:50	93.2	93.2	92.9	33	59.8	1	4	270	0.00	30.065 
13:55	93.4	93.4	93.6	34	60.8	0	2	270	0.00	30.065 
14:00	93.8	93.8	95.0	36	62.7	1	4	270	0.00	30.063 
14:05	93.6	93.6	94.7	36	62.6	1	4	270	0.00	30.063 
14:10	92.3	92.3	92.7	36	61.4	2	4	270	0.00	30.063 
14:15	91.2	91.2	91.8	38	62.0	2	3	270	0.00	30.065 
14:20	90.7	90.7	91.4	39	62.3	0	3	270	0.00	30.065 
14:25	90.7	90.7	91.4	39	62.3	0	1	270	0.00	30.065 
14:30	91.0	91.0	91.1	37	61.1	1	4	270	0.00	30.065 
14:35	91.6	91.6	92.4	38	62.3	1	3	22	0.00	30.065 
14:40	92.7	92.7	93.7	37	62.6	1	3	22	0.00	30.065 
14:45	93.6	93.6	94.3	35	61.8	1	3	338	0.00	30.061 
14:50	94.5	94.5	94.4	32	60.0	0	2	270	0.00	30.061 
14:55	94.9	94.9	95.5	33	61.2	1	3	270	0.00	30.061 
15:00	94.9	94.9	95.0	32	60.4	2	5	270	0.00	30.056 
15:05	94.7	94.7	95.1	33	61.1	1	4	270	0.00	30.056 
15:10	94.5	94.5	94.4	32	60.0	1	2	270	0.00	30.056 
15:15	94.5	94.5	94.4	32	60.0	1	3	292	0.00	30.053 
15:20	94.0	94.0	93.7	32	59.6	0	2	292	0.00	30.053 
15:25	94.0	94.0	94.5	34	61.3	1	3	292	0.00	30.053 
15:30	94.0	94.0	94.1	33	60.5	1	3	315	0.00	30.047 
15:35	94.3	94.3	94.5	33	60.7	1	4	315	0.00	30.047 
15:40	94.9	94.9	95.5	33	61.2	1	3	292	0.00	30.047 
15:45	94.9	94.9	94.6	31	59.5	2	4	292	0.00	30.047 
15:50	95.4	95.4	95.4	31	59.9	1	3	292	0.00	30.047 
15:55	95.9	95.9	96.6	32	61.2	1	4	292	0.00	30.047 
16:00	95.6	95.6	95.7	31	60.1	2	5	270	0.00	30.039 
16:05	95.6	95.6	95.7	31	60.1	2	5	270	0.00	30.039 
16:10	95.6	95.6	95.7	31	60.1	1	4	292	0.00	30.039 
16:15	95.6	95.6	96.1	32	61.0	1	5	315	0.00	30.034 
16:20	95.4	95.4	95.8	32	60.8	1	3	0	0.00	30.034 
16:25	95.1	95.1	94.9	31	59.7	1	3	270	0.00	30.034 
16:30	94.9	94.9	95.0	32	60.4	1	4	270	0.00	30.032 
16:35	94.0	94.0	93.7	32	59.6	2	4	270	0.00	30.032 
16:40	93.6	93.6	94.3	35	61.8	1	4	270	0.00	30.032 
16:45	94.0	94.0	93.7	32	59.6	2	4	270	0.00	30.031 
16:50	94.7	94.7	95.1	33	61.1	1	3	270	0.00	30.031 
16:55	94.5	94.5	94.8	33	60.9	1	3	270	0.00	30.031 
17:00	94.3	94.3	94.5	33	60.7	0	2	90	0.00	30.024 
17:05	93.8	93.8	93.8	33	60.3	0	2	90	0.00	30.024 
17:10	93.8	93.8	94.2	34	61.1	1	3	90	0.00	30.024 
17:15	94.3	94.3	94.1	32	59.9	1	4	270	0.00	30.024 
17:20	94.3	94.3	94.1	32	59.9	1	3	270	0.00	30.024 
17:25	93.4	93.4	93.2	33	59.9	1	2	270	0.00	30.024 
17:30	92.9	92.9	93.2	35	61.2	0	2	270	0.00	30.021 
17:35	92.5	92.5	93.0	36	61.6	0	2	270	0.00	30.021 
17:40	92.3	92.3	92.3	35	60.6	1	3	270	0.00	30.021 
17:45	92.5	92.5	93.0	36	61.6	1	3	270	0.00	30.023 
17:50	92.9	92.9	93.2	35	61.2	0	2	270	0.00	30.023 
17:55	93.2	93.2	94.5	37	63.0	1	4	270	0.00	30.023 
18:00	92.9	92.9	93.6	36	62.0	2	7	270	0.00	30.020 
18:05	92.3	92.3	93.1	37	62.2	2	5	315	0.00	30.020 
18:10	92.1	92.1	93.1	38	62.8	2	5	315	0.00	30.020 
18:15	92.1	92.1	93.1	38	62.8	2	5	292	0.00	30.022 
18:20	92.3	92.3	93.8	39	63.7	1	3	292	0.00	30.022 
18:25	92.3	92.3	94.3	40	64.4	1	4	315	0.00	30.022 
18:30	92.1	92.1	93.5	39	63.5	1	4	315	0.00	30.023 
18:35	91.8	91.8	93.1	39	63.3	1	4	292	0.00	30.023 
18:40	91.6	91.6	93.1	40	63.8	1	3	292	0.00	30.023 
18:45	91.2	91.2	92.9	41	64.2	1	3	292	0.00	30.021 
18:50	91.0	91.0	92.6	41	64.0	1	5	270	0.00	30.021 
18:55	90.7	90.7	91.7	40	63.0	2	5	270	0.00	30.021 
19:00	90.5	90.5	91.8	41	63.5	1	4	292	0.00	30.020 
19:05	90.5	90.5	91.8	41	63.5	1	5	292	0.00	30.020 
19:10	90.3	90.3	91.5	41	63.4	1	3	338	0.00	30.020 
19:15	89.9	89.9	90.9	41	63.0	2	4	315	0.00	30.019 
19:20	89.7	89.7	90.9	42	63.5	1	3	315	0.00	30.019 
19:25	89.7	89.7	90.9	42	63.5	1	4	315	0.00	30.019 
19:30	89.5	89.5	90.3	41	62.6	2	5	315	0.00	30.018 
19:35	89.3	89.3	90.0	41	62.5	1	4	292	0.00	30.018 
19:40	89.0	89.0	89.9	42	62.9	1	3	292	0.00	30.018 
19:45	89.0	89.0	89.9	42	62.9	1	4	292	0.00	30.019 
19:50	88.8	88.8	89.9	43	63.4	1	3	315	0.00	30.019 
19:55	88.6	88.6	89.3	42	62.5	1	4	315	0.00	30.019 
20:00	88.4	88.4	89.3	43	63.0	1	4	292	0.00	30.018 
20:05	88.2	88.2	89.0	43	62.8	1	3	292	0.00	30.018 
20:10	88.0	88.0	88.7	43	62.7	1	2	292	0.00	30.018 
20:15	87.8	87.8	88.5	43	62.5	0	1	292	0.00	30.006 
20:20	87.6	87.6	88.5	44	63.0	0	1	292	0.00	30.006 
20:25	87.4	87.4	88.2	44	62.8	1	2	292	0.00	30.006 
20:30	87.0	87.0	87.6	44	62.4	0	2	292	0.00	30.005 
20:35	86.7	86.7	87.5	45	62.8	1	2	292	0.00	30.005 
20:40	86.3	86.3	87.2	46	63.0	0	2	292	0.00	30.005 
20:45	86.1	86.1	87.0	46	62.9	0	1	292	0.00	30.005 
20:50	85.7	85.7	86.4	46	62.5	0	1	292	0.00	30.005 
20:55	85.5	85.5	86.2	46	62.3	0	1	292	0.00	30.005 
21:00	85.3	85.3	85.9	46	62.1	0	0	---	0.00	30.002 
21:05	85.1	85.1	85.9	47	62.6	0	1	292	0.00	30.002 
21:10	84.7	84.7	85.4	47	62.2	0	0	---	0.00	30.002 
21:15	84.3	84.3	85.1	48	62.4	0	0	---	0.00	30.008 
21:20	84.1	84.1	84.8	48	62.3	0	0	---	0.00	30.008 
21:25	83.8	83.8	84.7	49	62.6	0	0	---	0.00	30.008 
21:30	83.6	83.6	84.6	50	63.0	0	0	---	0.00	30.011 
21:35	83.4	83.4	84.4	50	62.8	0	1	292	0.00	30.011 
21:40	83.0	83.0	84.1	51	63.0	0	0	---	0.00	30.011 
21:45	82.8	82.8	84.0	52	63.3	0	0	---	0.00	30.019 
21:50	82.6	82.6	83.8	52	63.2	0	0	---	0.00	30.019 
21:55	82.4	82.4	83.9	54	64.1	0	0	---	0.00	30.019 
22:00	82.2	82.2	83.6	54	63.9	0	0	---	0.00	30.017 
22:05	81.8	81.8	83.3	55	64.0	0	0	---	0.00	30.017 
22:10	81.4	81.4	83.0	56	64.2	0	0	---	0.00	30.017 
22:15	81.1	81.1	82.6	56	63.9	0	0	---	0.00	30.016 
22:20	80.7	80.7	82.3	57	64.0	0	0	---	0.00	30.016 
22:25	80.1	80.1	81.7	58	64.0	0	0	---	0.00	30.016 
22:30	79.8	79.8	81.5	59	64.2	0	0	---	0.00	30.023 
22:35	79.4	79.4	81.0	59	63.8	0	0	---	0.00	30.023 
22:40	79.2	79.2	80.9	60	64.1	0	0	---	0.00	30.023 
22:45	78.8	78.8	80.5	61	64.2	0	0	---	0.00	30.023 
22:50	78.5	78.5	80.2	61	63.9	0	0	---	0.00	30.023 
22:55	78.1	78.1	79.9	62	64.0	0	0	---	0.00	30.023 
23:00	77.9	77.9	79.7	63	64.3	0	0	---	0.00	30.026 
23:05	77.6	77.6	79.4	63	64.0	0	0	---	0.00	30.026 
23:10	77.4	77.4	79.2	64	64.2	0	0	---	0.00	30.026 
23:15	77.2	77.2	79.0	65	64.5	0	0	---	0.00	30.025 
23:20	76.8	76.8	78.6	65	64.1	0	0	---	0.00	30.025 
23:25	76.7	76.7	78.5	66	64.5	0	0	---	0.00	30.025 
23:30	76.5	76.5	78.3	67	64.7	0	0	---	0.00	30.024 
23:35	76.1	76.1	77.8	68	64.8	0	0	---	0.00	30.024 
23:40	76.0	76.0	77.7	69	65.1	0	0	---	0.00	30.024 
23:45	75.6	75.6	77.3	69	64.7	0	0	---	0.00	30.025 
23:50	75.3	75.3	77.0	70	64.8	0	0	---	0.00	30.025 
23:55	75.1	75.1	76.7	71	65.0	0	0	---	0.00	30.025 

CoCoRaHS
IN-AL-39
A2 Web Hosting
Creative Commons License
GoDaddy
search engine by freefind advanced

loaded 2018-11-22 06:35:18 • last modified 2010-11-18 10:43:29
Privacy PolicyDisclaimer
• wx.awcolley.com is powered by PmWiki v.2002016 •
• all content (unless otherwise noted) © 2018 A W Colley